[[{"header":{"parameterUnit":"m.s-1","parameterCategory":1,"la1":30.2991,"la2":30.254,"lo1":-89.0895,"lo2":-89.0444,"dy":0.0017,"dx":0.0017,"nx":28,"ny":28,"refTime":"2025-07-21T21:00:00:Z","depth":0,"parameterNumber":2,"parameterNumberName":"U-component_of_WINDS"},"data":[0,0,0,0,0,0,0,0,0,0,0,0,0,0,0,0,0,0,0,0,0,0,0,0,0,0,0,0,0,0,0,0,0,0,0,0,0,0,0,0,0,0,0,0,0,0,0,0,0,0,0,0,0,0,0,0,0,0,3.4995,3.4996,0,3.5096,3.5097,3.5098,3.5056,3.5053,3.5051,3.5049,3.5154,3.5159,3.5164,0,0,0,0,0,0,0,0,0,0,0,0,0,3.4768,3.4772,3.4995,3.4996,3.4997,3.5096,3.5097,3.5098,3.5056,3.5053,3.505,3.5048,3.5153,3.5159,3.5165,0,0,0,0,0,0,0,0,0,0,0,0,0,3.4867,3.4774,3.4995,3.4988,3.4989,3.5095,3.5097,3.5099,3.5057,3.5053,3.505,3.5046,3.5151,3.5158,3.5166,3.5285,0,0,3.5189,3.5192,0,0,0,0,0,0,0,0,3.4862,3.4876,3.4988,3.4989,3.4989,3.5059,3.5056,3.5161,3.5058,3.5031,3.5049,3.5044,3.5126,3.5135,3.5162,3.529,3.5295,3.5189,3.5194,3.5197,3.52,0,0,0,0,0,0,0,3.4855,3.4871,3.5035,3.499,3.4991,3.4981,3.4991,3.5075,3.5098,3.5033,3.503,3.5043,3.5126,3.5155,3.5164,3.5296,3.5189,3.5196,3.5201,3.5204,3.5527,3.5531,0,0,0,0,0,0,3.4848,3.4866,3.5032,3.5038,3.4915,3.4988,3.4999,3.5041,3.5097,3.5102,3.5046,3.504,3.5144,3.5156,3.5168,3.5311,3.5197,3.5204,3.5209,3.5523,3.5528,3.5533,0,0,0,0,0,0,3.4843,3.4863,3.5028,3.4951,3.4971,3.4996,3.5043,3.5045,3.5074,3.5106,3.511,3.5071,3.5141,3.5157,3.5256,3.5314,3.5208,3.5215,3.5519,3.5525,3.5531,3.5599,0,0,0,0,0,0,3.4837,3.4861,3.4907,3.4952,3.4976,3.5113,3.5046,3.5049,3.5087,3.5081,3.5131,3.5136,3.514,3.5245,3.5264,3.5323,3.5221,3.5514,3.5521,3.5529,3.5591,3.5606,3.5619,0,0,0,0,0,3.4829,3.4922,3.4909,3.4929,3.5032,3.5117,3.513,3.5132,3.5092,3.5137,3.5158,3.5135,3.5305,3.5256,3.5276,3.5338,3.551,3.5519,3.5528,3.5585,3.5603,3.5619,0,0,0,0,0,0,3.4883,3.4928,3.4914,3.5025,3.5067,3.511,3.5167,3.5151,3.5206,3.5198,3.5199,3.521,3.5312,3.5336,3.5279,3.5457,3.5402,3.5415,3.5438,3.5455,3.5469,3.5461,3.5227,0,0,0,0,0,3.4908,3.4972,3.5008,3.5103,3.5125,3.5143,3.518,3.5177,3.5221,3.5239,3.5267,3.5312,3.5375,3.5417,3.5477,3.5595,3.5605,3.5648,3.5662,3.5673,3.5685,3.5748,3.5768,3.5563,3.5563,3.5562,0,0,3.496,3.4992,3.5033,3.5115,3.5147,3.5214,3.5158,3.5231,3.5281,3.5251,3.5345,3.5368,3.5417,3.5526,3.5575,3.5548,3.5744,3.5685,3.5694,3.5699,3.576,3.5779,3.5796,3.5569,3.5568,3.5567,0,0,3.5088,3.512,3.5201,3.5235,3.5285,3.5297,3.5316,3.5362,3.5375,3.547,3.5448,3.5508,3.5618,3.5654,3.5687,3.583,3.581,3.585,3.5922,3.5984,3.6,3.6014,3.6065,3.6083,3.5862,3.5862,3.5862,0,3.5146,3.5246,3.5246,3.5321,3.5357,3.5333,3.5416,3.5449,3.5516,3.5542,3.5511,3.5648,3.568,3.5797,3.5832,3.5859,3.5882,3.5843,3.5998,3.6012,3.6025,3.6073,3.6092,3.5866,3.5866,3.5865,3.5865,0,3.5314,3.5384,3.5444,3.5509,3.5553,3.5631,3.5644,3.5688,3.5683,3.5698,3.5795,3.5833,3.59,3.5928,3.5923,3.6044,3.6026,3.5997,3.594,3.6049,3.6094,3.6113,3.5872,3.5871,3.5869,3.5868,0,0,3.5478,3.5543,3.5565,3.5593,3.5647,3.5701,3.578,3.5845,3.5882,3.5931,3.5996,3.6089,3.6063,3.61,3.61,3.6155,3.6265,3.6119,3.612,3.6143,3.64,3.642,3.6441,3.6253,3.6256,3.6259,3.6395,0,3.5609,3.5745,3.5748,3.5873,3.5936,3.5915,3.5983,3.6024,3.604,3.6098,3.6116,3.6182,3.6143,3.6165,3.6218,3.624,3.6316,3.6231,3.6313,3.6316,3.63,3.6465,3.6486,3.6613,3.6413,3.6416,3.6418,0,3.578,3.5833,3.5964,3.6008,3.6035,3.6096,3.6156,3.6211,3.6258,3.6266,3.6308,3.63,3.638,3.6323,3.6434,3.6375,3.641,3.6426,3.6431,3.6437,3.6372,3.6474,3.6653,3.6671,3.6446,3.6444,3.6442,0,3.5885,3.5989,3.608,3.6106,3.6161,3.6204,3.6229,3.6271,3.6311,3.6364,3.6389,3.6451,3.6485,3.6534,3.6543,3.6501,3.6654,3.6598,3.6663,3.6663,3.6695,3.6692,3.688,3.672,3.672,3.6719,3.6719,0,3.603,3.6111,3.6128,3.6184,3.6274,3.6277,3.6366,3.6388,3.6426,3.6487,3.6473,3.653,3.6539,3.6599,3.6607,3.6697,3.6713,3.6722,3.6723,3.6722,3.6721,3.6744,3.6734,3.6724,3.6723,3.6722,3.6721,0,3.6161,3.6176,3.6274,3.6318,3.6331,3.6395,3.6433,3.6487,3.6502,3.6579,3.6597,3.6622,3.6692,3.6706,3.6789,3.6794,3.6901,3.6894,3.6885,3.6884,3.6948,3.6941,3.7155,3.7183,3.7006,3.7008,3.7009,0,3.6252,3.6313,3.6364,3.6403,3.6429,3.6493,3.6533,3.6539,3.6581,3.6639,3.6686,3.6754,3.6809,3.6921,3.6947,3.701,3.7004,3.7075,3.7013,3.701,3.7003,3.6999,3.7004,3.7086,3.7087,3.7089,3.709,0,3.6411,3.6415,3.6472,3.6533,3.658,3.6629,3.6674,3.6707,3.672,3.6768,3.6839,3.6881,3.6966,3.7033,3.7097,3.7123,3.7109,3.711,3.7128,3.7127,3.7118,3.7123,3.6915,3.7104,3.7103,3.7102,3.7101,3.7101,3.6523,3.6577,3.662,3.6685,3.672,3.6763,3.6816,3.6838,3.6897,3.6965,3.6966,3.7043,3.7089,3.7172,3.7203,3.7264,3.7242,3.7269,3.7275,3.7281,3.7286,3.711,3.7276,3.7276,3.7275,3.7275,3.7275,0,3.668,3.6708,3.6767,3.6831,3.6882,3.6865,3.6915,3.6958,3.7026,3.7069,3.7123,3.7205,3.7271,3.7302,3.7367,3.741,3.7405,3.7427,3.7423,3.7429,3.7303,3.728,3.7429,3.7429,3.7429,3.7429,3.7429,3.7429,3.6768,3.6857,3.6867,3.6973,3.7,3.7075,3.7105,3.7145,3.7179,3.7271,3.7325,3.7345,3.7384,3.7452,3.7512,3.7519,3.7543,3.7568,3.7572,3.7454,3.7438,3.7423,3.7401,3.7573,3.7574,3.7693,3.7694,3.7695]},{"header":{"parameterUnit":"m.s-1","parameterCategory":1,"la1":30.2991,"la2":30.254,"lo1":-89.0895,"lo2":-89.0444,"dy":0.0017,"dx":0.0017,"nx":28,"ny":28,"refTime":"2025-07-21T21:00:00:Z","depth":0,"parameterNumber":3,"parameterNumberName":"V-component_of_WINDS"},"data":[0,0,0,0,0,0,0,0,0,0,0,0,0,0,0,0,0,0,0,0,0,0,0,0,0,0,0,0,0,0,0,0,0,0,0,0,0,0,0,0,0,0,0,0,0,0,0,0,0,0,0,0,0,0,0,0,0,0,2.8406,2.8408,0,2.8543,2.8544,2.8546,2.857,2.8569,2.8567,2.8566,2.8705,2.8709,2.8714,0,0,0,0,0,0,0,0,0,0,0,0,0,2.8164,2.8169,2.8406,2.8408,2.8409,2.8542,2.8544,2.8546,2.857,2.8568,2.8567,2.8566,2.8703,2.8709,2.8714,0,0,0,0,0,0,0,0,0,0,0,0,0,2.8282,2.817,2.8406,2.8437,2.8441,2.8542,2.8544,2.8547,2.857,2.8568,2.8567,2.8565,2.8701,2.8708,2.8715,2.8793,0,0,2.8737,2.874,0,0,0,0,0,0,0,0,2.8275,2.8291,2.8431,2.8435,2.844,2.8537,2.851,2.8629,2.8571,2.8521,2.8566,2.8564,2.865,2.8661,2.8691,2.88,2.8806,2.8738,2.8742,2.8745,2.8747,0,0,0,0,0,0,0,2.8267,2.8285,2.846,2.8433,2.8439,2.8444,2.8459,2.8533,2.8594,2.8525,2.8527,2.8543,2.8652,2.8684,2.8694,2.8808,2.8737,2.8744,2.8748,2.8751,2.8988,2.899,0,0,0,0,0,0,2.8253,2.8278,2.8456,2.8464,2.8352,2.845,2.8467,2.8508,2.8593,2.8604,2.8545,2.8544,2.8673,2.8686,2.8699,2.8796,2.8745,2.8752,2.8756,2.8986,2.8988,2.899,0,0,0,0,0,0,2.8248,2.8269,2.845,2.8372,2.8395,2.8456,2.8502,2.8511,2.8543,2.8608,2.8618,2.8566,2.8672,2.8689,2.877,2.8802,2.8755,2.8761,2.8983,2.8987,2.8989,2.8991,0,0,0,0,0,0,2.8241,2.8267,2.8298,2.8372,2.8399,2.8519,2.8504,2.8515,2.8555,2.8556,2.863,2.8641,2.8672,2.8759,2.8777,2.8811,2.8767,2.8981,2.8985,2.8988,2.8989,2.8994,2.8999,0,0,0,0,0,2.8232,2.8292,2.8299,2.832,2.8439,2.8521,2.8536,2.8571,2.8558,2.8589,2.863,2.8638,2.8795,2.8767,2.8787,2.8824,2.8979,2.8984,2.8988,2.8986,2.8993,2.8999,0,0,0,0,0,0,2.8219,2.8303,2.8311,2.8397,2.8452,2.8525,2.8565,2.8577,2.8636,2.8634,2.8674,2.8691,2.8769,2.8805,2.8772,2.8904,2.8886,2.8895,2.8878,2.8885,2.8889,2.8879,2.8773,0,0,0,0,0,2.8227,2.8287,2.8356,2.8425,2.8452,2.8504,2.8541,2.8563,2.8621,2.8644,2.8691,2.8747,2.8809,2.8849,2.8909,2.8994,2.901,2.9029,2.9034,2.9037,2.9045,2.9092,2.9101,2.9005,2.9005,2.9005,0,0,2.8242,2.8295,2.833,2.8424,2.8469,2.853,2.8523,2.8588,2.8633,2.8654,2.8733,2.877,2.8834,2.8917,2.8956,2.8949,2.9075,2.9043,2.9046,2.9051,2.9098,2.9107,2.9115,2.9008,2.9008,2.9007,0,0,2.8301,2.8347,2.841,2.8455,2.8524,2.8558,2.8573,2.8644,2.8669,2.875,2.8767,2.8821,2.8926,2.8972,2.9009,2.9085,2.9095,2.9104,2.913,2.9175,2.9183,2.919,2.9217,2.9226,2.9111,2.9111,2.9111,0,2.8311,2.8404,2.8441,2.8505,2.8545,2.8567,2.8631,2.8673,2.8757,2.8785,2.8776,2.8909,2.8954,2.9048,2.9067,2.9096,2.9114,2.9095,2.9179,2.9186,2.9193,2.922,2.923,2.9111,2.9111,2.9111,2.9111,0,2.8414,2.8478,2.852,2.8601,2.8647,2.871,2.8756,2.8798,2.8816,2.885,2.8932,2.8987,2.9059,2.9083,2.9101,2.918,2.9173,2.9171,2.9154,2.9202,2.9228,2.9238,2.9112,2.9112,2.9112,2.9112,0,0,2.8468,2.8569,2.8584,2.8621,2.8699,2.8749,2.8813,2.8884,2.8919,2.8976,2.9031,2.912,2.9119,2.916,2.9184,2.9224,2.9281,2.9217,2.9219,2.9227,2.9371,2.9372,2.9383,2.9288,2.929,2.9292,2.9366,0,2.8536,2.8653,2.8687,2.8785,2.8844,2.8866,2.8922,2.8975,2.9009,2.9064,2.9102,2.9164,2.9158,2.9184,2.9224,2.9265,2.931,2.9261,2.9339,2.9341,2.9322,2.9396,2.9398,2.9465,2.9376,2.9377,2.9379,0,2.8632,2.8691,2.8794,2.8864,2.889,2.894,2.9008,2.9061,2.9121,2.9143,2.919,2.921,2.9278,2.9257,2.9351,2.9316,2.935,2.9375,2.9379,2.9387,2.9363,2.9407,2.9487,2.9497,2.9395,2.9393,2.9392,0,2.8661,2.8767,2.8843,2.8874,2.8957,2.8992,2.9028,2.9087,2.9127,2.9186,2.9213,2.9279,2.9315,2.9365,2.9403,2.9384,2.9493,2.9475,2.9513,2.9512,2.9535,2.9533,2.9621,2.9556,2.9556,2.9556,2.9556,0,2.8733,2.8796,2.8857,2.8903,2.8974,2.9013,2.9082,2.9119,2.9171,2.9225,2.9248,2.9297,2.9344,2.94,2.9429,2.9502,2.9518,2.9537,2.9545,2.9536,2.9533,2.9558,2.9555,2.9559,2.9558,2.9558,2.9557,0,2.8778,2.8822,2.8906,2.8978,2.8997,2.9046,2.9107,2.9153,2.9188,2.9256,2.9274,2.9329,2.9396,2.9438,2.9523,2.9543,2.9623,2.9629,2.9603,2.9606,2.9641,2.9638,2.9749,2.9766,2.969,2.9691,2.9691,0,2.8821,2.887,2.8947,2.8985,2.9022,2.9083,2.9124,2.9165,2.9207,2.928,2.9317,2.9385,2.9442,2.9548,2.9596,2.9661,2.9668,2.9703,2.9678,2.9667,2.9668,2.9665,2.967,2.9707,2.9707,2.9708,2.9708,0,2.8894,2.8913,2.8972,2.9039,2.9088,2.9143,2.9197,2.9227,2.9277,2.9323,2.9392,2.9437,2.9524,2.9592,2.9661,2.9698,2.9711,2.9716,2.9728,2.9719,2.9702,2.9712,2.9614,2.9713,2.9712,2.9712,2.9712,2.9712,2.8939,2.8983,2.9045,2.911,2.9155,2.9206,2.9253,2.9294,2.9352,2.9427,2.9447,2.9519,2.9579,2.9673,2.9712,2.9768,2.9764,2.9781,2.9786,2.9789,2.979,2.9693,2.9781,2.9781,2.9781,2.9781,2.9781,0,2.9012,2.9053,2.9113,2.9189,2.924,2.9249,2.931,2.9352,2.9416,2.947,2.9526,2.9605,2.9671,2.9724,2.9792,2.9827,2.9835,2.9843,2.9841,2.9849,2.979,2.9773,2.9836,2.9836,2.9836,2.9836,2.9836,2.9836,2.9057,2.9132,2.9158,2.9256,2.9297,2.9368,2.9402,2.9449,2.9492,2.958,2.9636,2.967,2.9723,2.9795,2.9856,2.987,2.9894,2.9901,2.9916,2.9859,2.9853,2.9848,2.9832,2.9906,2.9906,2.997,2.9971,2.9971]}]]